SOYUZ-MS 18 (48159 NORAD) Tracking and Keplerian Element Data

This shows tracking and keplerian element data for the satellite.

Feedback or suggestion? Click here.




ElementValue
Catalog48159
NameSOYUZ-MS 18
Epoch Orbit28368
Epoch Day136.50525436
Epoch Year2021
RAAN139.4273
Inclination51.6433
Eccentricity0.0003066
Argument of Perigee8.5269
Mean Anonmoly175.7036
Mean Motion15.4901132
Decay Rate1.472E-05
L11 48159U 21029A 21136.50525436 .00001472 00000-0 34859-4 0 9991
L22 48159 51.6433 139.4273 0003066 8.5269 175.7036 15.49011320283687

Live tracking and technical data element details for SOYUZ-MS 18 (NORAD 48159). SOYUZ-MS 18 can be tracked NOW for your location showing map with azimuth and elevation plus other details from your city location.

Track the satellite on the map from your city or location and see movement details for azimuth, elevation, latitude, longitude, range, height, and movement on the map or in text.







IsCatalogInMostPopularTable: catalog: 48159, numindb: 15
Update: records affected: 1



GetName: 48159 SOYUZ-MS 18

Hit Count: updated at: Mon, 17 May 2021 16:44:48 GMT